#timestamp,LO_Frequency,Hit,StdDev 
1546477215.8,286047000.4,N
1546477235.6,286047002.2,N
1546477255.5,286047000.8,N
1546477275.3,286046999.8,N
1546477295.2,286046999.7,N
1546477315.9,286047002.0,N
1546477335.7,286047002.2,N
1546477355.6,286047002.7,N
1546477375.1,286047000.5,N
1546477376.0,286047000.5,N
1546477395.8,286046998.1,N
1546477415.6,286046998.4,N
1546477435.5,286046998.5,N
1546477455.3,286047000.4,N
1546477475.2,286046998.3,N
1546477495.0,286046998.9,N
1546477495.9,286046998.9,N
1546477515.7,286046998.7,N
1546477535.6,286046999.0,N
1546477555.4,286047000.7,N
1546477575.3,286047002.7,N
1546477595.1,286046998.1,N
1546477615.8,286047000.6,N
1546477635.7,286047001.2,N
1546477655.5,286047001.1,N
1546477675.4,286047000.6,N
1546477695.2,286047000.2,N
1546477715.1,286047002.7,N
1546477716.0,286047002.7,N
1546477735.8,286047002.6,N
1546477755.7,286047000.4,N
1546477775.5,286047000.4,N
1546477795.3,286046999.8,N
1546477815.2,286047002.4,N
1546477835.0,286047001.9,N
1546477835.9,286047001.9,N
1546477855.8,286047002.7,N
1546477875.6,286047002.5,N
1546477895.4,286046999.7,N
1546477915.3,286047000.1,N
1546477935.1,286047000.4,N
1546477955.8,286046999.7,N
1546477975.7,286047000.4,N
1546477995.5,286047001.9,N
1546478015.4,286047003.9,N
1546478035.2,286047003.1,N
1546478055.0,286047003.5,N
1546478055.9,286047003.5,N
1546478075.8,286047003.2,N
1546478095.6,286047003.2,N
1546478115.4,286047005.6,Y
1546478135.3,286047001.8,P
1546478155.1,286046999.9,N
1546478175.9,286046999.9,N
1546478195.7,286047000.3,N
1546478215.5,286047000.2,N
1546478235.4,286047000.2,N
1546478255.2,286047000.6,N
1546478275.0,286047001.1,N
1546478275.9,286047001.1,N
1546478295.8,286046998.1,N
1546478315.6,286046998.6,N
1546478335.5,286046998.8,N
1546478355.3,286047001.2,N
1546478375.1,286047001.1,N
1546478395.9,286047001.0,N
1546478415.7,286047002.7,N
1546478435.5,286047000.1,N
1546478455.4,286047001.4,N
1546478475.2,286047001.6,N
1546478495.1,286047002.5,N
1546478496.0,286047002.5,N
1546478515.8,286047001.2,N
1546478535.6,286047000.8,N
1546478555.5,286047000.8,N
1546478575.3,286047000.6,N
1546478595.1,286047001.2,N
1546478615.9,286047001.1,N
1546478635.7,286047000.6,N
1546478655.6,286046998.6,N
1546478675.4,286046998.7,N
1546478695.2,286047000.8,N
1546478715.1,286047000.6,N
1546478716.0,286047000.6,N
1546478735.8,286047000.0,N
1546478755.7,286046999.9,N
1546478775.5,286047000.2,N
1546478795.3,286047002.7,N
1546478815.2,286047000.0,N
1546478835.9,286046998.2,N
1546478855.7,286047000.9,N
1546478875.6,286047000.8,N
1546478895.4,286046999.4,N
1546478915.3,286046999.6,N
1546478935.1,286046999.3,N
1546478936.0,286046999.3,N
1546478955.8,286046996.9,N
1546478975.7,286046997.2,N
1546478995.5,286046996.7,N
1546479015.3,286046999.1,N
1546479035.2,286046996.5,N
1546479055.0,286046999.3,N
1546479055.9,286046999.3,N
1546479075.8,286046998.8,N
1546479095.8,286046999.9,N
1546479115.6,286046999.8,N
1546479135.4,286047001.0,N
1546479155.3,286046998.2,N
1546479175.1,286046999.5,N
1546479195.9,286046999.2,N
1546479215.7,286046997.2,N
1546479235.5,286046995.3,Y
1546479255.4,286046998.0,P
1546479275.2,286046995.3,P
1546479295.0,286046997.9,N
1546479296.0,286046997.9,N
1546479315.8,286046996.8,N
1546479335.6,286046999.6,N
1546479355.5,286047001.0,N
1546479375.3,286046998.6,N
1546479395.1,286046999.6,N
1546479415.9,286046997.2,N
1546479435.7,286046997.1,N
1546479455.6,286046997.0,N
1546479475.4,286046997.2,N
1546479495.2,286046997.3,N
1546479515.1,286046995.0,Y
1546479516.0,286046995.0,P
1546479535.8,286046996.9,N
1546479555.6,286046997.1,N
1546479575.5,286046997.0,N
1546479595.3,286046996.7,Y
1546479615.2,286047000.5,P
1546479635.9,286047002.4,N
1546479655.7,286047002.3,N
1546479675.6,286046999.7,N
1546479695.4,286046999.7,N
1546479715.2,286047002.8,N
1546479735.1,286047001.5,N
1546479736.0,286047001.5,N
1546479755.8,286046999.9,N
1546479775.7,286047002.8,N
1546479795.5,286047002.6,N
1546479815.3,286047002.4,N
1546479835.2,286047002.8,N
1546479855.0,286047002.2,N
1546479855.9,286047002.2,N
1546479875.7,286047001.9,N
1546479895.6,286047000.5,N
1546479915.4,286046999.9,N
1546479935.3,286047000.6,N
1546479955.1,286047002.8,N
1546479956.0,286047002.8,N
1546479975.8,286047001.8,N
1546479995.7,286047001.9,N
1546480015.5,286047003.9,N
1546480035.3,286047001.8,N
1546480055.2,286047002.0,N
1546480075.0,286047001.7,N
1546480075.9,286047001.7,N
1546480095.8,286047004.2,Y
1546480115.6,286047001.9,P
1546480135.4,286047002.1,P
1546480155.3,286046999.8,N
1546480175.1,286046999.7,N
1546480195.9,286047000.9,N
1546480215.7,286047000.6,N
1546480235.5,286047000.3,N
1546480255.4,286047000.7,N
1546480275.2,286047000.8,N
1546480295.0,286047000.8,N
1546480295.9,286047000.8,N
1546480315.8,286046998.1,N
1546480335.6,286047000.7,N
1546480355.5,286047002.7,N
1546480375.3,286047002.1,N
1546480395.1,286047001.1,N
1546480415.9,286046998.1,N
1546480435.7,286046999.3,N
1546480455.5,286046999.0,N
1546480475.4,286046999.3,N
1546480495.2,286046997.4,N
1546480515.1,286046996.9,N
1546480516.0,286046996.9,N
1546480535.8,286046995.0,Y
1546480555.6,286046998.0,P
1546480575.5,286046995.2,P
1546480595.3,286046995.0,N
1546480615.2,286046997.6,N
1546480635.9,286046996.2,N
1546480655.7,286046996.4,N
1546480675.6,286046991.7,Y
1546480695.4,286046995.3,P
1546480715.2,286046995.5,P
1546480735.1,286046995.6,P
1546480736.0,286046995.6,Y
1546480755.8,286047001.0,P
1546480775.7,286047000.9,N
1546480795.5,286047002.6,N
